Year,Month,Day,Hour,Minute,Value (Times are PST for temperature in C)
2020,02,01,00,00,10.40
2020,02,01,00,01,10.50
2020,02,01,00,02,10.50
2020,02,01,00,03,10.50
2020,02,01,00,04,10.60
2020,02,01,00,05,10.60
2020,02,01,00,06,10.60
2020,02,01,00,07,10.70
2020,02,01,00,08,10.70
2020,02,01,00,09,10.70
2020,02,01,00,10,10.70
2020,02,01,00,11,10.70
2020,02,01,00,12,10.70
2020,02,01,00,13,10.70
2020,02,01,00,14,10.70
2020,02,01,00,15,10.70
2020,02,01,00,16,10.70
2020,02,01,00,17,10.80
2020,02,01,00,18,10.80
2020,02,01,00,19,10.80
2020,02,01,00,20,10.80
2020,02,01,00,21,10.80
2020,02,01,00,22,10.70
2020,02,01,00,23,10.70
2020,02,01,00,24,10.70
2020,02,01,00,25,10.80
2020,02,01,00,26,10.80
2020,02,01,00,27,10.80
2020,02,01,00,28,10.80
2020,02,01,00,29,10.80
2020,02,01,00,30,10.80
2020,02,01,00,31,10.80
2020,02,01,00,32,10.80
2020,02,01,00,33,10.70
2020,02,01,00,34,10.70
2020,02,01,00,35,10.70
2020,02,01,00,36,10.70
2020,02,01,00,37,10.70
2020,02,01,00,38,10.70
2020,02,01,00,39,10.70
2020,02,01,00,40,10.70
2020,02,01,00,41,10.70
2020,02,01,00,42,10.70
2020,02,01,00,43,10.70
2020,02,01,00,44,10.70
2020,02,01,00,45,10.70
2020,02,01,00,46,10.70
2020,02,01,00,47,10.70
2020,02,01,00,48,10.70
2020,02,01,00,49,10.70
2020,02,01,00,50,10.70
2020,02,01,00,51,10.70
2020,02,01,00,52,10.70
2020,02,01,00,53,10.70
2020,02,01,00,54,10.70
2020,02,01,00,55,10.70
2020,02,01,00,56,10.60
2020,02,01,00,57,10.60
2020,02,01,00,58,10.60
2020,02,01,00,59,10.60
2020,02,01,01,00,10.60
2020,02,01,01,01,10.60
2020,02,01,01,02,10.60
2020,02,01,01,03,10.60
2020,02,01,01,04,10.60
2020,02,01,01,05,10.60
2020,02,01,01,06,10.60
2020,02,01,01,07,10.60
2020,02,01,01,08,10.50
2020,02,01,01,09,10.50
2020,02,01,01,10,10.50
2020,02,01,01,11,10.50
2020,02,01,01,12,10.50
2020,02,01,01,13,10.50
2020,02,01,01,14,10.50
2020,02,01,01,15,10.50
2020,02,01,01,16,10.50
2020,02,01,01,17,10.50
2020,02,01,01,18,10.50
2020,02,01,01,19,10.50
2020,02,01,01,20,10.40
2020,02,01,01,21,10.40
2020,02,01,01,22,10.50
2020,02,01,01,23,10.60
2020,02,01,01,24,10.60
2020,02,01,01,25,10.50
2020,02,01,01,26,10.50
2020,02,01,01,27,10.50
2020,02,01,01,28,10.60
2020,02,01,01,29,10.60
2020,02,01,01,30,10.50
2020,02,01,01,31,10.50
2020,02,01,01,32,10.50
2020,02,01,01,33,10.50
2020,02,01,01,34,10.60
2020,02,01,01,35,10.60
2020,02,01,01,36,10.60
2020,02,01,01,37,10.70
2020,02,01,01,38,10.70
2020,02,01,01,39,10.70
2020,02,01,01,40,10.70
2020,02,01,01,41,10.80
2020,02,01,01,42,10.80
2020,02,01,01,43,10.80
2020,02,01,01,44,10.90
2020,02,01,01,45,10.90
2020,02,01,01,46,10.90
2020,02,01,01,47,10.90
2020,02,01,01,48,11.00
2020,02,01,01,49,11.00
2020,02,01,01,50,11.00
2020,02,01,01,51,11.10
2020,02,01,01,52,11.00
2020,02,01,01,53,10.90
2020,02,01,01,54,10.90
2020,02,01,01,55,10.90
2020,02,01,01,56,11.10
2020,02,01,01,57,11.10
2020,02,01,01,58,11.10
2020,02,01,01,59,11.10
2020,02,01,02,00,11.10
2020,02,01,02,01,11.10
2020,02,01,02,02,11.10
2020,02,01,02,03,11.00
2020,02,01,02,04,11.00
2020,02,01,02,05,11.00
2020,02,01,02,06,11.00
2020,02,01,02,07,11.00
2020,02,01,02,08,11.00
2020,02,01,02,09,11.00
2020,02,01,02,10,11.00
2020,02,01,02,11,11.00
2020,02,01,02,12,11.00
2020,02,01,02,13,11.00
2020,02,01,02,14,11.00
2020,02,01,02,15,11.00
2020,02,01,02,16,11.00
2020,02,01,02,17,11.10
2020,02,01,02,18,11.00
2020,02,01,02,19,11.00
2020,02,01,02,20,11.00
2020,02,01,02,21,11.10
2020,02,01,02,22,11.10
2020,02,01,02,23,11.10
2020,02,01,02,24,11.00
2020,02,01,02,25,11.00
2020,02,01,02,26,11.00
2020,02,01,02,27,11.00
2020,02,01,02,28,11.10
2020,02,01,02,29,11.00
2020,02,01,02,30,11.00
2020,02,01,02,31,10.90
2020,02,01,02,32,10.90
2020,02,01,02,33,10.90
2020,02,01,02,34,10.80
2020,02,01,02,35,10.80
2020,02,01,02,36,10.70
2020,02,01,02,37,10.70
2020,02,01,02,38,10.70
2020,02,01,02,39,10.60
2020,02,01,02,40,10.60
2020,02,01,02,41,10.50
2020,02,01,02,42,10.50
2020,02,01,02,43,10.40
2020,02,01,02,44,10.30
2020,02,01,02,45,10.20
2020,02,01,02,46,10.20
2020,02,01,02,47,10.10
2020,02,01,02,48,10.00
2020,02,01,02,49,10.00
2020,02,01,02,50,9.90
2020,02,01,02,51,9.80
2020,02,01,02,52,10.00
2020,02,01,02,53,10.10
2020,02,01,02,54,10.00
2020,02,01,02,55,10.00
2020,02,01,02,56,9.90
2020,02,01,02,57,10.10
2020,02,01,02,58,10.20
2020,02,01,02,59,10.20
2020,02,01,03,00,10.20
2020,02,01,03,01,10.20
2020,02,01,03,02,10.20
2020,02,01,03,03,10.10
2020,02,01,03,04,10.00
2020,02,01,03,05,9.90
2020,02,01,03,06,9.90
2020,02,01,03,07,10.00
2020,02,01,03,08,10.00
2020,02,01,03,09,10.10
2020,02,01,03,10,10.10
2020,02,01,03,11,10.20
2020,02,01,03,12,10.20
2020,02,01,03,13,10.10
2020,02,01,03,14,10.00
2020,02,01,03,15,10.20
2020,02,01,03,16,10.10
2020,02,01,03,17,10.10
2020,02,01,03,18,10.00
2020,02,01,03,19,9.80
2020,02,01,03,20,9.80
2020,02,01,03,21,9.80
2020,02,01,03,22,9.70
2020,02,01,03,23,9.60
2020,02,01,03,24,9.50
2020,02,01,03,25,9.50
2020,02,01,03,26,9.50
2020,02,01,03,27,9.70
2020,02,01,03,28,9.80
2020,02,01,03,29,9.70
2020,02,01,03,30,9.80
2020,02,01,03,31,9.80
2020,02,01,03,32,9.80
2020,02,01,03,33,9.90
2020,02,01,03,34,10.00
2020,02,01,03,35,10.10
2020,02,01,03,36,10.10
2020,02,01,03,37,10.20
2020,02,01,03,38,10.30
2020,02,01,03,39,10.30
2020,02,01,03,40,10.30
2020,02,01,03,41,10.20
2020,02,01,03,42,10.20
2020,02,01,03,43,10.50
2020,02,01,03,44,10.60
2020,02,01,03,45,10.60
2020,02,01,03,46,10.60
2020,02,01,03,47,10.70
2020,02,01,03,48,10.90
2020,02,01,03,49,10.90
2020,02,01,03,50,10.70
2020,02,01,03,51,10.50
2020,02,01,03,52,10.40
2020,02,01,03,53,10.60
2020,02,01,03,54,10.60
2020,02,01,03,55,10.30
2020,02,01,03,56,10.20
2020,02,01,03,57,10.10
2020,02,01,03,58,10.00
2020,02,01,03,59,9.90
2020,02,01,04,00,9.90
2020,02,01,04,01,9.90
2020,02,01,04,02,9.80
2020,02,01,04,03,9.80
2020,02,01,04,04,9.70
2020,02,01,04,05,9.70
2020,02,01,04,06,9.70
2020,02,01,04,07,9.70
2020,02,01,04,08,9.80
2020,02,01,04,09,9.80
2020,02,01,04,10,9.90
2020,02,01,04,11,9.80
2020,02,01,04,12,9.80
2020,02,01,04,13,9.70
2020,02,01,04,14,9.80
2020,02,01,04,15,9.90
2020,02,01,04,16,10.00
2020,02,01,04,17,10.10
2020,02,01,04,18,10.00
2020,02,01,04,19,9.90
2020,02,01,04,20,10.00
2020,02,01,04,21,10.00
2020,02,01,04,22,10.00
2020,02,01,04,23,10.00
2020,02,01,04,24,10.00
2020,02,01,04,25,10.10
2020,02,01,04,26,10.10
2020,02,01,04,27,10.10
2020,02,01,04,28,10.00
2020,02,01,04,29,9.90
2020,02,01,04,30,10.10
2020,02,01,04,31,10.40
2020,02,01,04,32,10.40
2020,02,01,04,33,10.30
2020,02,01,04,34,10.40
2020,02,01,04,35,10.50
2020,02,01,04,36,10.40
2020,02,01,04,37,10.40
2020,02,01,04,38,10.50
2020,02,01,04,39,10.60
2020,02,01,04,40,10.50
2020,02,01,04,41,10.50
2020,02,01,04,42,10.40
2020,02,01,04,43,10.40
2020,02,01,04,44,10.40
2020,02,01,04,45,10.40
2020,02,01,04,46,10.30
2020,02,01,04,47,10.30
2020,02,01,04,48,10.10
2020,02,01,04,49,10.10
2020,02,01,04,50,10.00
2020,02,01,04,51,9.90
2020,02,01,04,52,10.10
2020,02,01,04,53,10.00
2020,02,01,04,54,10.00
2020,02,01,04,55,9.90
2020,02,01,04,56,9.80
2020,02,01,04,57,9.80
2020,02,01,04,58,9.80
2020,02,01,04,59,9.80
2020,02,01,05,00,9.80
2020,02,01,05,01,9.80
2020,02,01,05,02,9.80
2020,02,01,05,03,9.90
2020,02,01,05,04,10.00
2020,02,01,05,05,9.90
2020,02,01,05,06,9.90
2020,02,01,05,07,9.80
2020,02,01,05,08,9.80
2020,02,01,05,09,9.80
2020,02,01,05,10,9.70
2020,02,01,05,11,9.80
2020,02,01,05,12,10.00
2020,02,01,05,13,10.20
2020,02,01,05,14,10.30
2020,02,01,05,15,10.30
2020,02,01,05,16,10.20
2020,02,01,05,17,10.10
2020,02,01,05,18,10.00
2020,02,01,05,19,10.00
2020,02,01,05,20,10.00
2020,02,01,05,21,10.00
2020,02,01,05,22,9.90
2020,02,01,05,23,9.90
2020,02,01,05,24,9.80
2020,02,01,05,25,9.70
2020,02,01,05,26,9.80
2020,02,01,05,27,9.90
2020,02,01,05,28,10.10
2020,02,01,05,29,10.20
2020,02,01,05,30,10.30
2020,02,01,05,31,10.20
2020,02,01,05,32,10.20
2020,02,01,05,33,10.30
2020,02,01,05,34,10.40
2020,02,01,05,35,10.40
2020,02,01,05,36,10.40
2020,02,01,05,37,10.30
2020,02,01,05,38,10.30
2020,02,01,05,39,10.20
2020,02,01,05,40,10.00
2020,02,01,05,41,10.00
2020,02,01,05,42,10.00
2020,02,01,05,43,10.00
2020,02,01,05,44,10.00
2020,02,01,05,45,9.90
2020,02,01,05,46,9.90
2020,02,01,05,47,9.90
2020,02,01,05,48,10.00
2020,02,01,05,49,10.00
2020,02,01,05,50,10.00
2020,02,01,05,51,10.10
2020,02,01,05,52,10.00
2020,02,01,05,53,9.80
2020,02,01,05,54,9.70
2020,02,01,05,55,9.60
2020,02,01,05,56,9.60
2020,02,01,05,57,9.60
2020,02,01,05,58,9.50
2020,02,01,05,59,9.50
2020,02,01,06,00,9.50
2020,02,01,06,01,9.40
2020,02,01,06,02,9.40
2020,02,01,06,03,9.30
2020,02,01,06,04,9.30
2020,02,01,06,05,9.30
2020,02,01,06,06,9.30
2020,02,01,06,07,9.20
2020,02,01,06,08,9.20
2020,02,01,06,09,9.10
2020,02,01,06,10,9.10
2020,02,01,06,11,9.20
2020,02,01,06,12,9.10
2020,02,01,06,13,9.10
2020,02,01,06,14,9.10
2020,02,01,06,15,9.10
2020,02,01,06,16,9.10
2020,02,01,06,17,9.10
2020,02,01,06,18,9.10
2020,02,01,06,19,9.00
2020,02,01,06,20,8.90
2020,02,01,06,21,8.90
2020,02,01,06,22,8.90
2020,02,01,06,23,8.90
2020,02,01,06,24,8.90
2020,02,01,06,25,8.90
2020,02,01,06,26,8.90
2020,02,01,06,27,8.80
2020,02,01,06,28,8.70
2020,02,01,06,29,8.70
2020,02,01,06,30,8.70
2020,02,01,06,31,8.80
2020,02,01,06,32,8.80
2020,02,01,06,33,8.80
2020,02,01,06,34,8.80
2020,02,01,06,35,8.70
2020,02,01,06,36,8.70
2020,02,01,06,37,8.60
2020,02,01,06,38,8.60
2020,02,01,06,39,8.50
2020,02,01,06,40,8.50
2020,02,01,06,41,8.40
2020,02,01,06,42,8.40
2020,02,01,06,43,8.40
2020,02,01,06,44,8.40
2020,02,01,06,45,8.40
2020,02,01,06,46,8.40
2020,02,01,06,47,8.40
2020,02,01,06,48,8.50
2020,02,01,06,49,8.40
2020,02,01,06,50,8.40
2020,02,01,06,51,8.50
2020,02,01,06,52,8.40
2020,02,01,06,53,8.40
2020,02,01,06,54,8.30
2020,02,01,06,55,8.30
2020,02,01,06,56,8.30
2020,02,01,06,57,8.30
2020,02,01,06,58,8.30
2020,02,01,06,59,8.30
2020,02,01,07,00,8.30
2020,02,01,07,01,8.30
2020,02,01,07,02,8.30
2020,02,01,07,03,8.30
2020,02,01,07,04,8.30
2020,02,01,07,05,8.30
2020,02,01,07,06,8.30
2020,02,01,07,07,8.20
2020,02,01,07,08,8.30
2020,02,01,07,09,8.30
2020,02,01,07,10,8.30
2020,02,01,07,11,8.20
2020,02,01,07,12,8.20
2020,02,01,07,13,8.20
2020,02,01,07,14,8.20
2020,02,01,07,15,8.20
2020,02,01,07,16,8.20
2020,02,01,07,17,8.20
2020,02,01,07,18,8.20
2020,02,01,07,19,8.20
2020,02,01,07,20,8.20
2020,02,01,07,21,8.20
2020,02,01,07,22,8.20
2020,02,01,07,23,8.10
2020,02,01,07,24,8.10
2020,02,01,07,25,8.10
2020,02,01,07,26,8.10
2020,02,01,07,27,8.10
2020,02,01,07,28,8.10
2020,02,01,07,29,8.10
2020,02,01,07,30,8.10
2020,02,01,07,31,8.10
2020,02,01,07,32,8.10
2020,02,01,07,33,8.10
2020,02,01,07,34,8.10
2020,02,01,07,35,8.00
2020,02,01,07,36,8.00
2020,02,01,07,37,8.00
2020,02,01,07,38,7.90
2020,02,01,07,39,7.80
2020,02,01,07,40,7.80
2020,02,01,07,41,7.80
2020,02,01,07,42,7.80
2020,02,01,07,43,7.70
2020,02,01,07,44,7.70
2020,02,01,07,45,7.60
2020,02,01,07,46,7.60
2020,02,01,07,47,7.60
2020,02,01,07,48,7.60
2020,02,01,07,49,7.60
2020,02,01,07,50,7.60
2020,02,01,07,51,7.70
2020,02,01,07,52,7.70
2020,02,01,07,53,7.70
2020,02,01,07,54,7.70
2020,02,01,07,55,7.70
2020,02,01,07,56,7.70
2020,02,01,07,57,7.70
2020,02,01,07,58,7.70
2020,02,01,07,59,7.70
2020,02,01,08,00,7.70
2020,02,01,08,01,7.70
2020,02,01,08,02,7.80
2020,02,01,08,03,7.80
2020,02,01,08,04,7.80
2020,02,01,08,05,7.80
2020,02,01,08,06,7.80
2020,02,01,08,07,7.80
2020,02,01,08,08,7.80
2020,02,01,08,09,7.70
2020,02,01,08,10,7.70
2020,02,01,08,11,7.80
2020,02,01,08,12,7.80
2020,02,01,08,13,7.80
2020,02,01,08,14,7.80
2020,02,01,08,15,7.80
2020,02,01,08,16,7.80
2020,02,01,08,17,7.90
2020,02,01,08,18,7.90
2020,02,01,08,19,7.90
2020,02,01,08,20,7.90
2020,02,01,08,21,7.80
2020,02,01,08,22,7.80
2020,02,01,08,23,7.80
2020,02,01,08,24,7.80
2020,02,01,08,25,7.80
2020,02,01,08,26,7.80
2020,02,01,08,27,7.80
2020,02,01,08,28,7.80
2020,02,01,08,29,7.80
2020,02,01,08,30,7.70
2020,02,01,08,31,7.70
2020,02,01,08,32,7.70
2020,02,01,08,33,7.80
2020,02,01,08,34,7.80
2020,02,01,08,35,7.80
2020,02,01,08,36,7.80
2020,02,01,08,37,7.80
2020,02,01,08,38,7.80
2020,02,01,08,39,7.80
2020,02,01,08,40,7.80
2020,02,01,08,41,7.80
2020,02,01,08,42,7.80
2020,02,01,08,43,7.80
2020,02,01,08,44,7.70
2020,02,01,08,45,7.70
2020,02,01,08,46,7.60
2020,02,01,08,47,7.60
2020,02,01,08,48,7.60
2020,02,01,08,49,7.60
2020,02,01,08,50,7.50
2020,02,01,08,51,7.50
2020,02,01,08,52,7.50
2020,02,01,08,53,7.50
2020,02,01,08,54,7.50
2020,02,01,08,55,7.40
2020,02,01,08,56,7.50
2020,02,01,08,57,7.40
2020,02,01,08,58,7.50
2020,02,01,08,59,7.50
2020,02,01,09,00,7.50
2020,02,01,09,01,7.50
2020,02,01,09,02,7.40
2020,02,01,09,03,7.40
2020,02,01,09,04,7.40
2020,02,01,09,05,7.40
2020,02,01,09,06,7.40
2020,02,01,09,07,7.40
2020,02,01,09,08,7.40
2020,02,01,09,09,7.40
2020,02,01,09,10,7.40
2020,02,01,09,11,7.40
2020,02,01,09,12,7.40
2020,02,01,09,13,7.40
2020,02,01,09,14,7.40
2020,02,01,09,15,7.40
2020,02,01,09,16,7.40
2020,02,01,09,17,7.40
2020,02,01,09,18,7.40
2020,02,01,09,19,7.30
2020,02,01,09,20,7.30
2020,02,01,09,21,7.30
2020,02,01,09,22,7.30
2020,02,01,09,23,7.30
2020,02,01,09,24,7.30
2020,02,01,09,25,7.20
2020,02,01,09,26,7.20
2020,02,01,09,27,7.30
2020,02,01,09,28,7.20
2020,02,01,09,29,7.30
2020,02,01,09,30,7.30
2020,02,01,09,31,7.30
2020,02,01,09,32,7.30
2020,02,01,09,33,7.30
2020,02,01,09,34,7.30
2020,02,01,09,35,7.30
2020,02,01,09,36,7.30
2020,02,01,09,37,7.30
2020,02,01,09,38,7.30
2020,02,01,09,39,7.30
2020,02,01,09,40,7.30
2020,02,01,09,41,7.30
2020,02,01,09,42,7.40
2020,02,01,09,43,7.40
2020,02,01,09,44,7.40
2020,02,01,09,45,7.40
2020,02,01,09,46,7.50
2020,02,01,09,47,7.50
2020,02,01,09,48,7.50
2020,02,01,09,49,7.50
2020,02,01,09,50,7.50
2020,02,01,09,51,7.40
2020,02,01,09,52,7.40
2020,02,01,09,53,7.50
2020,02,01,09,54,7.40
2020,02,01,09,55,7.40
2020,02,01,09,56,7.40
2020,02,01,09,57,7.40
2020,02,01,09,58,7.40
2020,02,01,09,59,7.40
2020,02,01,10,00,7.40
2020,02,01,10,01,7.40
2020,02,01,10,02,7.40
2020,02,01,10,03,7.30
2020,02,01,10,04,7.30
2020,02,01,10,05,7.30
2020,02,01,10,06,7.30
2020,02,01,10,07,7.30
2020,02,01,10,08,7.30
2020,02,01,10,09,7.30
2020,02,01,10,10,7.30
2020,02,01,10,11,7.30
2020,02,01,10,12,7.30
2020,02,01,10,13,7.40
2020,02,01,10,14,7.40
2020,02,01,10,15,7.40
2020,02,01,10,16,7.40
2020,02,01,10,17,7.40
2020,02,01,10,18,7.40
2020,02,01,10,19,7.40
2020,02,01,10,20,7.40
2020,02,01,10,21,7.40
2020,02,01,10,22,7.40
2020,02,01,10,23,7.40
2020,02,01,10,24,7.40
2020,02,01,10,25,7.40
2020,02,01,10,26,7.40
2020,02,01,10,27,7.40
2020,02,01,10,28,7.40
2020,02,01,10,29,7.40
2020,02,01,10,30,7.40
2020,02,01,10,31,7.50
2020,02,01,10,32,7.40
2020,02,01,10,33,7.40
2020,02,01,10,34,7.50
2020,02,01,10,35,7.50
2020,02,01,10,36,7.50
2020,02,01,10,37,7.50
2020,02,01,10,38,7.50
2020,02,01,10,39,7.50
2020,02,01,10,40,7.50
2020,02,01,10,41,7.50
2020,02,01,10,42,7.50
2020,02,01,10,43,7.50
2020,02,01,10,44,7.50
2020,02,01,10,45,7.50
2020,02,01,10,46,7.50
2020,02,01,10,47,7.50
2020,02,01,10,48,7.50
2020,02,01,10,49,7.50
2020,02,01,10,50,7.50
2020,02,01,10,51,7.60
2020,02,01,10,52,7.50
2020,02,01,10,53,7.50
2020,02,01,10,54,7.50
2020,02,01,10,55,7.50
2020,02,01,10,56,7.50
2020,02,01,10,57,7.50
2020,02,01,10,58,7.50
2020,02,01,10,59,7.50
2020,02,01,11,00,7.50
2020,02,01,11,01,7.50
2020,02,01,11,02,7.50
2020,02,01,11,03,7.50
2020,02,01,11,04,7.50
2020,02,01,11,05,7.50
2020,02,01,11,06,7.50
2020,02,01,11,07,7.40
2020,02,01,11,08,7.40
2020,02,01,11,09,7.40
2020,02,01,11,10,7.40
2020,02,01,11,11,7.40
2020,02,01,11,12,7.40
2020,02,01,11,13,7.40
2020,02,01,11,14,7.30
2020,02,01,11,15,7.30
2020,02,01,11,16,7.30
2020,02,01,11,17,7.30
2020,02,01,11,18,7.30
2020,02,01,11,19,7.30
2020,02,01,11,20,7.30
2020,02,01,11,21,7.30
2020,02,01,11,22,7.30
2020,02,01,11,23,7.30
2020,02,01,11,24,7.30
2020,02,01,11,25,7.30
2020,02,01,11,26,7.30
2020,02,01,11,27,7.30
2020,02,01,11,28,7.30
2020,02,01,11,29,7.30
2020,02,01,11,30,7.30
2020,02,01,11,31,7.30
2020,02,01,11,32,7.30
2020,02,01,11,33,7.30
2020,02,01,11,34,7.30
2020,02,01,11,35,7.30
2020,02,01,11,36,7.30
2020,02,01,11,37,7.30
2020,02,01,11,38,7.30
2020,02,01,11,39,7.30
2020,02,01,11,40,7.30
2020,02,01,11,41,7.30
2020,02,01,11,42,7.30
2020,02,01,11,43,7.30
2020,02,01,11,44,7.30
2020,02,01,11,45,7.30
2020,02,01,11,46,7.30
2020,02,01,11,47,7.30
2020,02,01,11,48,7.30
2020,02,01,11,49,7.30
2020,02,01,11,50,7.30
2020,02,01,11,51,7.30
2020,02,01,11,52,7.30
2020,02,01,11,53,7.30
2020,02,01,11,54,7.30
2020,02,01,11,55,7.30
2020,02,01,11,56,7.30
2020,02,01,11,57,7.30
2020,02,01,11,58,7.30
2020,02,01,11,59,7.30
2020,02,01,12,00,7.30
2020,02,01,12,01,7.30
2020,02,01,12,02,7.30
2020,02,01,12,03,7.40
2020,02,01,12,04,7.40
2020,02,01,12,05,7.40
2020,02,01,12,06,7.40
2020,02,01,12,07,7.40
2020,02,01,12,08,7.40
2020,02,01,12,09,7.40
2020,02,01,12,10,7.40
2020,02,01,12,11,7.40
2020,02,01,12,12,7.40
2020,02,01,12,13,7.40
2020,02,01,12,14,7.40
2020,02,01,12,15,7.40
2020,02,01,12,16,7.40
2020,02,01,12,17,7.40
2020,02,01,12,18,7.40
2020,02,01,12,19,7.40
2020,02,01,12,20,7.40
2020,02,01,12,21,7.50
2020,02,01,12,22,7.50
2020,02,01,12,23,7.50
2020,02,01,12,24,7.50
2020,02,01,12,25,7.50
2020,02,01,12,26,7.50
2020,02,01,12,27,7.50
2020,02,01,12,28,7.40
2020,02,01,12,29,7.40
2020,02,01,12,30,7.40
2020,02,01,12,31,7.40
2020,02,01,12,32,7.40
2020,02,01,12,33,7.40
2020,02,01,12,34,7.40
2020,02,01,12,35,7.30
2020,02,01,12,36,7.30
2020,02,01,12,37,7.30
2020,02,01,12,38,7.30
2020,02,01,12,39,7.30
2020,02,01,12,40,7.30
2020,02,01,12,41,7.30
2020,02,01,12,42,7.40
2020,02,01,12,43,7.40
2020,02,01,12,44,7.40
2020,02,01,12,45,7.40
2020,02,01,12,46,7.40
2020,02,01,12,47,7.40
2020,02,01,12,48,7.50
2020,02,01,12,49,7.50
2020,02,01,12,50,7.50
2020,02,01,12,51,7.50
2020,02,01,12,52,7.40
2020,02,01,12,53,7.40
2020,02,01,12,54,7.40
2020,02,01,12,55,7.40
2020,02,01,12,56,7.40
2020,02,01,12,57,7.40
2020,02,01,12,58,7.30
2020,02,01,12,59,7.30
2020,02,01,13,00,7.30
2020,02,01,13,01,7.30
2020,02,01,13,02,7.20
2020,02,01,13,03,7.10
2020,02,01,13,04,7.00
2020,02,01,13,05,6.90
2020,02,01,13,06,6.90
2020,02,01,13,07,6.80
2020,02,01,13,08,6.70
2020,02,01,13,09,6.80
2020,02,01,13,10,6.70
2020,02,01,13,11,6.70
2020,02,01,13,12,6.70
2020,02,01,13,13,6.70
2020,02,01,13,14,6.70
2020,02,01,13,15,6.60
2020,02,01,13,16,6.70
2020,02,01,13,17,6.70
2020,02,01,13,18,6.70
2020,02,01,13,19,6.60
2020,02,01,13,20,6.60
2020,02,01,13,21,6.60
2020,02,01,13,22,6.70
2020,02,01,13,23,6.70
2020,02,01,13,24,6.70
2020,02,01,13,25,6.70
2020,02,01,13,26,6.80
2020,02,01,13,27,6.80
2020,02,01,13,28,6.80
2020,02,01,13,29,6.80
2020,02,01,13,30,6.80
2020,02,01,13,31,6.80
2020,02,01,13,32,6.80
2020,02,01,13,33,6.80
2020,02,01,13,34,6.90
2020,02,01,13,35,6.90
2020,02,01,13,36,6.90
2020,02,01,13,37,6.90
2020,02,01,13,38,6.90
2020,02,01,13,39,6.90
2020,02,01,13,40,6.90
2020,02,01,13,41,6.90
2020,02,01,13,42,6.90
2020,02,01,13,43,6.90
2020,02,01,13,44,6.90
2020,02,01,13,45,6.80
2020,02,01,13,46,6.80
2020,02,01,13,47,6.90
2020,02,01,13,48,6.90
2020,02,01,13,49,6.90
2020,02,01,13,50,6.90
2020,02,01,13,51,6.90
2020,02,01,13,52,6.90
2020,02,01,13,53,7.00
2020,02,01,13,54,6.90
2020,02,01,13,55,6.90
2020,02,01,13,56,6.90
2020,02,01,13,57,6.90
2020,02,01,13,58,6.90
2020,02,01,13,59,6.90
2020,02,01,14,00,6.90
2020,02,01,14,01,6.90
2020,02,01,14,02,6.90
2020,02,01,14,03,6.80
2020,02,01,14,04,6.80
2020,02,01,14,05,6.80
2020,02,01,14,06,6.90
2020,02,01,14,07,6.80
2020,02,01,14,08,6.90
2020,02,01,14,09,6.90
2020,02,01,14,10,6.90
2020,02,01,14,11,6.90
2020,02,01,14,12,7.00
2020,02,01,14,13,7.00
2020,02,01,14,14,7.00
2020,02,01,14,15,7.00
2020,02,01,14,16,7.00
2020,02,01,14,17,7.00
2020,02,01,14,18,6.90
2020,02,01,14,19,6.90
2020,02,01,14,20,6.90
2020,02,01,14,21,6.90
2020,02,01,14,22,6.90
2020,02,01,14,23,7.00
2020,02,01,14,24,7.00
2020,02,01,14,25,7.00
2020,02,01,14,26,7.00
2020,02,01,14,27,7.00
2020,02,01,14,28,7.00
2020,02,01,14,29,7.00
2020,02,01,14,30,7.00
2020,02,01,14,31,7.00
2020,02,01,14,32,7.00
2020,02,01,14,33,7.00
2020,02,01,14,34,7.00
2020,02,01,14,35,7.00
2020,02,01,14,36,7.00
2020,02,01,14,37,7.00
2020,02,01,14,38,7.00
2020,02,01,14,39,7.00
2020,02,01,14,40,7.00
2020,02,01,14,41,7.00
2020,02,01,14,42,7.00
2020,02,01,14,43,6.90
2020,02,01,14,44,6.90
2020,02,01,14,45,6.80
2020,02,01,14,46,6.80
2020,02,01,14,47,6.80
2020,02,01,14,48,6.80
2020,02,01,14,49,6.70
2020,02,01,14,50,6.70
2020,02,01,14,51,6.70
2020,02,01,14,52,6.70
2020,02,01,14,53,6.80
2020,02,01,14,54,6.80
2020,02,01,14,55,6.80
2020,02,01,14,56,6.80
2020,02,01,14,57,6.70
2020,02,01,14,58,6.40
2020,02,01,14,59,6.10
2020,02,01,15,00,6.00
2020,02,01,15,01,6.00
2020,02,01,15,02,5.90
2020,02,01,15,03,5.80
2020,02,01,15,04,5.90
2020,02,01,15,05,5.90
2020,02,01,15,06,6.00
2020,02,01,15,07,6.00
2020,02,01,15,08,6.00
2020,02,01,15,09,6.00
2020,02,01,15,10,6.10
2020,02,01,15,11,6.00
2020,02,01,15,12,6.10
2020,02,01,15,13,6.00
2020,02,01,15,14,6.00
2020,02,01,15,15,6.00
2020,02,01,15,16,6.00
2020,02,01,15,17,6.00
2020,02,01,15,18,6.10
2020,02,01,15,19,6.00
2020,02,01,15,20,6.10
2020,02,01,15,21,6.10
2020,02,01,15,22,6.20
2020,02,01,15,23,6.20
2020,02,01,15,24,6.20
2020,02,01,15,25,6.20
2020,02,01,15,26,6.30
2020,02,01,15,27,6.30
2020,02,01,15,28,6.20
2020,02,01,15,29,6.20
2020,02,01,15,30,6.20
2020,02,01,15,31,6.10
2020,02,01,15,32,6.10
2020,02,01,15,33,6.10
2020,02,01,15,34,6.20
2020,02,01,15,35,6.10
2020,02,01,15,36,6.10
2020,02,01,15,37,6.20
2020,02,01,15,38,6.20
2020,02,01,15,39,6.20
2020,02,01,15,40,6.30
2020,02,01,15,41,6.20
2020,02,01,15,42,6.20
2020,02,01,15,43,6.20
2020,02,01,15,44,6.20
2020,02,01,15,45,6.20
2020,02,01,15,46,6.20
2020,02,01,15,47,6.30
2020,02,01,15,48,6.20
2020,02,01,15,49,6.20
2020,02,01,15,50,6.30
2020,02,01,15,51,6.30
2020,02,01,15,52,6.30
2020,02,01,15,53,6.30
2020,02,01,15,54,6.30
2020,02,01,15,55,6.30
2020,02,01,15,56,6.20
2020,02,01,15,57,6.30
2020,02,01,15,58,6.30
2020,02,01,15,59,6.30
2020,02,01,16,00,6.20
2020,02,01,16,01,6.20
2020,02,01,16,02,6.20
2020,02,01,16,03,6.20
2020,02,01,16,04,6.20
2020,02,01,16,05,6.30
2020,02,01,16,06,6.30
2020,02,01,16,07,6.30
2020,02,01,16,08,6.30
2020,02,01,16,09,6.30
2020,02,01,16,10,6.30
2020,02,01,16,11,6.30
2020,02,01,16,12,6.20
2020,02,01,16,13,6.20
2020,02,01,16,14,6.20
2020,02,01,16,15,6.20
2020,02,01,16,16,6.10
2020,02,01,16,17,6.10
2020,02,01,16,18,6.20
2020,02,01,16,19,6.10
2020,02,01,16,20,6.10
2020,02,01,16,21,6.00
2020,02,01,16,22,6.10
2020,02,01,16,23,6.10
2020,02,01,16,24,6.10
2020,02,01,16,25,6.10
2020,02,01,16,26,6.10
2020,02,01,16,27,6.00
2020,02,01,16,28,6.00
2020,02,01,16,29,6.00
2020,02,01,16,30,6.00
2020,02,01,16,31,6.00
2020,02,01,16,32,5.90
2020,02,01,16,33,5.90
2020,02,01,16,34,5.90
2020,02,01,16,35,6.00
2020,02,01,16,36,6.00
2020,02,01,16,37,5.90
2020,02,01,16,38,5.90
2020,02,01,16,39,5.90
2020,02,01,16,40,5.90
2020,02,01,16,41,5.80
2020,02,01,16,42,5.70
2020,02,01,16,43,5.60
2020,02,01,16,44,5.50
2020,02,01,16,45,5.40
2020,02,01,16,46,5.30
2020,02,01,16,47,5.30
2020,02,01,16,48,5.30
2020,02,01,16,49,5.20
2020,02,01,16,50,5.20
2020,02,01,16,51,5.20
2020,02,01,16,52,5.20
2020,02,01,16,53,5.20
2020,02,01,16,54,5.20
2020,02,01,16,55,5.20
2020,02,01,16,56,5.30
2020,02,01,16,57,5.30
2020,02,01,16,58,5.40
2020,02,01,16,59,5.40
2020,02,01,17,00,5.40
2020,02,01,17,01,5.40
2020,02,01,17,02,5.40
2020,02,01,17,03,5.40
2020,02,01,17,04,5.40
2020,02,01,17,05,5.40
2020,02,01,17,06,5.50
2020,02,01,17,07,5.50
2020,02,01,17,08,5.50
2020,02,01,17,09,5.50
2020,02,01,17,10,5.50
2020,02,01,17,11,5.50
2020,02,01,17,12,5.60
2020,02,01,17,13,5.60
2020,02,01,17,14,5.60
2020,02,01,17,15,5.70
2020,02,01,17,16,5.70
2020,02,01,17,17,5.60
2020,02,01,17,18,5.60
2020,02,01,17,19,5.70
2020,02,01,17,20,5.60
2020,02,01,17,21,5.40
2020,02,01,17,22,5.30
2020,02,01,17,23,5.30
2020,02,01,17,24,5.30
2020,02,01,17,25,5.30
2020,02,01,17,26,5.30
2020,02,01,17,27,5.30
2020,02,01,17,28,5.20
2020,02,01,17,29,5.20
2020,02,01,17,30,5.20
2020,02,01,17,31,5.20
2020,02,01,17,32,5.30
2020,02,01,17,33,5.30
2020,02,01,17,34,5.40
2020,02,01,17,35,5.40
2020,02,01,17,36,5.30
2020,02,01,17,37,5.30
2020,02,01,17,38,5.40
2020,02,01,17,39,5.30
2020,02,01,17,40,5.30
2020,02,01,17,41,5.30
2020,02,01,17,42,5.40
2020,02,01,17,43,5.40
2020,02,01,17,44,5.40
2020,02,01,17,45,5.40
2020,02,01,17,46,5.50
2020,02,01,17,47,5.50
2020,02,01,17,48,5.50
2020,02,01,17,49,5.50
2020,02,01,17,50,5.50
2020,02,01,17,51,5.50
2020,02,01,17,52,5.40
2020,02,01,17,53,5.40